GW4034 Weather Reports


Display with metric or nautical units.
time (UTC)temp
F
wind
direction
speed
MPH
gust
MPH
rain 1hr
in
rain 24hr
in
rain mn
in
humidity
%
barometer
mb
20260904052217 74 234 0.0 0.0 0.12 0.02 0.02 92 1015.7
20260904051714 74 209 0.0 0.0 0.12 0.02 0.02 92 1015.7
20260904051208 74 328 5.0 7.0 0.00 0.00 0.00 92 1016.0
20260904050704 74 243 0.0 0.0 0.00 0.00 0.00 92 1015.6
20260904050200 75 226 0.0 0.0 0.00 0.00 0.00 91 1015.5
20260904045659 75 227 0.0 0.0 0.00 0.00 0.00 91 1015.6
20260904045154 75 223 0.0 0.0 0.00 0.00 0.00 91 1015.6
20260904044649 75 211 0.0 0.0 0.00 0.00 0.00 91 1015.5
20260904044146 75 260 0.0 0.0 0.00 0.00 0.00 90 1015.8
20260904043642 75 234 0.0 0.0 0.00 0.00 0.00 90 1016.2
20260904043137 75 197 0.0 0.0 0.00 0.00 0.00 90 1016.0
20260904042633 75 230 0.0 0.0 0.00 0.00 0.00 90 1016.2
20260904042128 74 228 0.0 0.0 0.00 0.00 0.00 91 1016.3
20260904041624 74 223 0.0 0.0 0.00 0.00 0.00 91 1016.1
20260904041120 74 226 0.0 0.0 0.00 0.00 0.00 91 1016.3
20260904040616 74 228 0.0 0.0 0.00 0.00 0.00 91 1016.5
20260904040112 74 231 0.0 0.0 0.00 0.18 0.18 91 1016.2
20260904035607 74 228 0.0 0.0 0.00 0.18 0.18 91 1016.1
20260904035107 74 227 0.0 0.0 0.00 0.18 0.18 91 1016.0
20260904034601 74 227 0.0 0.0 0.00 0.18 0.18 91 1015.9
20260904034057 74 229 0.0 0.0 0.00 0.18 0.18 91 1016.1
20260904033553 74 229 0.0 0.0 0.00 0.18 0.18 90 1016.1
20260904033050 74 230 0.0 0.0 0.00 0.18 0.18 90 1016.0
20260904032545 74 235 0.0 0.0 0.00 0.18 0.18 90 1016.1
20260904032044 74 213 0.0 0.0 0.00 0.18 0.18 90 1016.0
20260904031543 75 211 0.0 0.0 0.00 0.18 0.18 90 1016.0
20260904031040 75 211 0.0 0.0 0.00 0.18 0.18 90 1016.2
20260904030536 75 225 0.0 0.0 0.00 0.18 0.18 89 1016.1
20260904030031 75 226 0.0 0.0 0.00 0.18 0.18 89 1016.2
20260904025526 75 226 0.0 0.0 0.00 0.18 0.18 89 1016.2
20260904025021 75 225 0.0 0.0 0.00 0.18 0.18 89 1016.3
20260904024516 75 229 0.0 0.0 0.00 0.18 0.18 89 1016.4
20260904024012 75 223 0.0 0.0 0.00 0.18 0.18 89 1016.5
20260904023508 75 209 0.0 0.0 0.00 0.18 0.18 89 1016.6
20260904023003 75 207 0.0 0.0 0.00 0.18 0.18 89 1016.5
20260904022458 75 219 0.0 0.0 0.00 0.18 0.18 89 1016.7
20260904021955 75 222 0.0 0.0 0.00 0.18 0.18 89 1016.5
20260904021451 75 234 0.0 0.0 0.00 0.18 0.18 89 1016.7
20260904020950 75 226 0.0 0.0 0.00 0.18 0.18 89 1016.8
20260904020446 75 232 0.0 0.0 0.00 0.18 0.18 89 1016.8
20260904015944 75 227 0.0 0.0 0.00 0.18 0.18 89 1016.9
20260904015440 75 230 0.0 0.0 0.00 0.18 0.18 89 1016.7
20260904014938 75 227 0.0 0.0 0.00 0.18 0.18 88 1017.0
20260904014432 75 227 0.0 0.0 0.00 0.18 0.18 88 1016.9
20260904013929 75 231 0.0 0.0 0.00 0.18 0.18 88 1017.0
20260904013419 75 231 0.0 0.0 0.00 0.18 0.18 88 1016.7
20260904012915 75 223 0.0 0.0 0.00 0.18 0.18 88 1016.8
20260904012415 75 231 0.0 0.0 0.00 0.18 0.18 88 1017.0
20260904011909 75 230 0.0 0.0 0.00 0.18 0.18 88 1017.1
20260904011404 75 225 0.0 0.0 0.00 0.18 0.18 88 1016.8
20260904010859 75 232 0.0 0.0 0.00 0.18 0.18 88 1016.8
20260904010356 75 225 0.0 0.0 0.00 0.18 0.18 87 1016.7
20260904005850 76 233 0.0 0.0 0.00 0.18 0.18 87 1016.8
20260904005346 76 223 0.0 0.0 0.00 0.18 0.18 87 1016.8
20260904004841 76 239 0.0 0.0 0.00 0.18 0.18 87 1016.8
20260904004337 76 218 0.0 0.0 0.00 0.18 0.18 87 1017.0
20260904003832 76 234 0.0 0.0 0.00 0.18 0.18 86 1017.2
20260904003328 76 229 0.0 0.0 0.00 0.18 0.18 86 1016.7
20260904002823 76 234 0.0 0.0 0.00 0.18 0.18 86 1016.7
20260904002319 76 228 0.0 0.0 0.00 0.18 0.18 85 1016.5
20260904001818 77 223 0.0 0.0 0.00 0.18 0.18 85 1016.4
20260904001314 77 223 0.0 0.0 0.00 0.18 0.18 85 1016.6
20260904000809 77 223 0.0 0.0 0.00 0.18 0.18 84 1016.5
20260904000308 77 226 0.0 0.0 0.00 0.18 0.18 82 1016.8
20260903235802 78 216 0.0 0.0 0.00 0.18 0.18 81 1016.7
20260903235259 78 216 0.0 0.0 0.00 0.18 0.18 81 1016.6
20260903234757 78 219 0.0 0.0 0.00 0.18 0.18 79 1016.3
20260903234254 79 217 0.0 0.0 0.00 0.18 0.18 78 1016.4
20260903233750 79 215 0.0 0.0 0.00 0.18 0.18 77 1016.1
20260903233246 80 199 0.0 0.0 0.00 0.18 0.18 76 1016.1
20260903232744 79 164 1.0 2.0 0.00 0.18 0.18 77 1015.9
20260903232241 80 207 0.0 0.0 0.00 0.18 0.18 77 1016.1
20260903231739 80 207 0.0 0.0 0.00 0.18 0.18 76 1016.1
20260903231235 80 207 0.0 0.0 0.00 0.18 0.18 76 1016.1
20260903230731 81 207 0.0 0.0 0.00 0.18 0.18 75 1016.2
20260903230225 81 207 0.0 0.0 0.00 0.18 0.18 74 1016.2
20260903225722 81 208 0.0 0.0 0.00 0.18 0.18 74 1016.3
20260903225218 82 208 0.0 0.0 0.00 0.18 0.18 73 1016.4
20260903224714 82 208 0.0 0.0 0.00 0.18 0.18 73 1016.3
20260903224210 82 210 0.0 0.0 0.00 0.18 0.18 72 1016.6
20260903223705 83 208 0.0 0.0 0.00 0.18 0.18 72 1016.6
20260903223204 83 193 0.0 0.0 0.00 0.18 0.18 70 1016.7
20260903222704 84 202 0.0 0.0 0.00 0.18 0.18 70 1016.6
20260903222203 84 187 1.0 1.0 0.00 0.18 0.18 69 1016.6
20260903221658 84 218 0.0 0.0 0.00 0.18 0.18 70 1016.7
20260903221156 84 216 0.0 0.0 0.00 0.18 0.18 70 1016.3
20260903220655 84 130 2.0 2.0 0.00 0.18 0.18 69 1016.7
20260903220149 84 139 1.0 2.0 0.00 0.18 0.18 71 1016.5
20260903215649 84 210 0.0 0.0 0.00 0.18 0.18 70 1016.6
20260903215144 84 185 1.0 1.0 0.00 0.18 0.18 70 1016.5
20260903214642 84 183 1.0 1.0 0.00 0.18 0.18 70 1016.4
20260903214138 84 188 1.0 1.0 0.00 0.18 0.18 70 1016.5
20260903213633 84 151 3.0 3.0 0.00 0.18 0.18 69 1016.2
20260903213129 85 231 0.0 0.0 0.00 0.18 0.18 70 1016.3
20260903212625 85 211 0.0 0.0 0.00 0.18 0.18 70 1016.4
20260903212120 84 210 0.0 0.0 0.00 0.18 0.18 71 1016.4
20260903211614 85 137 3.0 3.0 0.00 0.18 0.18 69 1016.5
20260903211112 84 231 0.0 0.0 0.00 0.18 0.18 72 1016.7
20260903210606 83 203 0.0 0.0 0.00 0.18 0.18 72 1016.5
20260903205601 84 177 2.0 2.0 0.00 0.18 0.18 71 1016.5
20260903205055 84 214 0.0 0.0 0.00 0.18 0.18 70 1016.6
20260903204552 85 114 2.0 3.0 0.00 0.18 0.18 69 1016.4
20260903204046 85 136 1.0 1.0 0.00 0.18 0.18 69 1016.5
20260903203542 85 150 1.0 2.0 0.00 0.18 0.18 71 1016.4
20260903203041 85 205 0.0 0.0 0.00 0.18 0.18 68 1016.6
20260903202537 84 228 0.0 0.0 0.00 0.18 0.18 69 1016.4
20260903202032 84 248 0.0 0.0 0.00 0.18 0.18 69 1016.8
20260903201527 85 257 1.0 1.0 0.00 0.18 0.18 70 1016.8
20260903201026 85 265 0.0 1.0 0.00 0.18 0.18 69 1016.4
20260903200521 85 219 0.0 0.0 0.00 0.18 0.18 69 1016.5
20260903200016 85 191 0.0 0.0 0.00 0.18 0.18 70 1016.6
20260903195512 85 243 0.0 0.0 0.00 0.18 0.18 69 1016.6
20260903195008 85 286 0.0 1.0 0.00 0.18 0.18 69 1016.5
20260903194503 85 29 2.0 2.0 0.00 0.18 0.18 69 1016.8
20260903193958 85 247 1.0 1.0 0.00 0.18 0.18 68 1016.7
20260903193454 85 226 0.0 0.0 0.00 0.18 0.18 69 1016.8
20260903192949 86 215 0.0 0.0 0.00 0.18 0.18 68 1016.8
20260903192446 86 254 1.0 1.0 0.00 0.18 0.18 67 1016.9
20260903191940 86 241 1.0 1.0 0.00 0.18 0.18 67 1016.7
20260903191437 86 279 1.0 2.0 0.00 0.18 0.18 67 1016.9
20260903190936 87 250 0.0 1.0 0.00 0.18 0.18 67 1016.9
20260903190431 87 293 1.0 1.0 0.00 0.18 0.18 67 1017.0
20260903185930 86 283 0.0 1.0 0.00 0.18 0.18 66 1017.1
20260903185426 86 15 2.0 2.0 0.00 0.18 0.18 67 1017.1
20260903184921 87 233 1.0 2.0 0.00 0.18 0.18 67 1017.2
20260903184418 87 225 1.0 1.0 0.00 0.18 0.18 66 1017.2
20260903183918 88 335 1.0 2.0 0.00 0.18 0.18 65 1017.2
20260903183413 86 228 0.0 1.0 0.00 0.18 0.18 67 1017.0
20260903182912 85 218 1.0 1.0 0.00 0.18 0.18 67 1017.4
20260903182411 84 351 4.0 6.0 0.00 0.18 0.18 69 1017.4
20260903181906 85 229 2.0 3.0 0.00 0.18 0.18 68 1017.3
20260903181401 83 302 1.0 1.0 0.00 0.18 0.18 70 1017.1
20260903180900 83 349 4.0 7.0 0.00 0.18 0.18 70 1017.5
20260903180355 83 286 2.0 2.0 0.00 0.18 0.18 71 1017.4
20260903175854 82 21 2.0 2.0 0.00 0.18 0.18 71 1017.5
20260903175349 82 145 2.0 2.0 0.00 0.18 0.18 71 1017.6
20260903174843 82 260 2.0 2.0 0.00 0.18 0.18 72 1017.6
20260903174338 82 19 0.0 1.0 0.00 0.18 0.18 73 1017.5
20260903173832 82 332 3.0 4.0 0.00 0.18 0.18 72 1017.7
20260903173328 82 279 2.0 2.0 0.00 0.18 0.18 73 1017.9
20260903172824 82 275 1.0 2.0 0.00 0.18 0.18 72 1017.9
20260903172324 82 347 2.0 3.0 0.00 0.18 0.18 73 1018.0
20260903171820 82 242 1.0 1.0 0.00 0.18 0.18 74 1017.8
20260903171315 81 271 2.0 3.0 0.00 0.18 0.18 73 1017.9
20260903170815 81 261 4.0 4.0 0.00 0.18 0.18 73 1018.3
20260903170310 80 208 1.0 2.0 0.00 0.18 0.18 74 1018.4
20260903165808 80 338 2.0 2.0 0.00 0.18 0.18 74 1018.2
20260903165305 80 218 6.0 8.0 0.00 0.18 0.18 75 1018.1
20260903164756 80 235 2.0 2.0 0.00 0.18 0.18 75 1018.2
20260903164252 80 208 1.0 1.0 0.00 0.18 0.18 75 1018.1
20260903163751 80 287 2.0 3.0 0.00 0.18 0.18 75 1018.2
20260903163248 79 280 2.0 2.0 0.00 0.18 0.18 77 1018.4
20260903162744 78 272 0.0 1.0 0.00 0.18 0.18 78 1018.3
20260903162240 79 225 3.0 4.0 0.00 0.18 0.18 77 1018.6
20260903161730 79 239 3.0 7.0 0.00 0.18 0.18 77 1018.2
20260903161225 79 216 4.0 7.0 0.00 0.18 0.18 76 1018.5
20260903160721 78 226 5.0 7.0 0.00 0.18 0.18 77 1018.6
20260903160220 78 333 3.0 4.0 0.00 0.18 0.18 77 1018.9
20260903155719 78 234 3.0 3.0 0.00 0.18 0.18 79 1019.0
20260903155214 78 259 3.0 4.0 0.00 0.18 0.18 78 1019.0
20260903154709 78 333 2.0 3.0 0.00 0.18 0.18 78 1018.8
20260903154205 78 310 4.0 6.0 0.00 0.18 0.18 79 1019.0
20260903153701 77 278 2.0 3.0 0.00 0.18 0.18 80 1018.8
20260903153156 77 254 3.0 3.0 0.00 0.18 0.18 80 1018.7
20260903152652 77 333 1.0 2.0 0.00 0.18 0.18 80 1018.8
20260903152148 77 328 2.0 3.0 0.00 0.18 0.18 80 1019.0
20260903151648 77 300 2.0 2.0 0.00 0.18 0.18 81 1018.8
20260903151143 76 209 2.0 3.0 0.00 0.18 0.18 82 1018.9
20260903150643 76 235 2.0 2.0 0.00 0.18 0.18 81 1019.1
20260903150138 76 227 1.0 1.0 0.00 0.18 0.18 81 1018.9
20260903145637 76 242 1.0 2.0 0.00 0.18 0.18 82 1019.1
20260903145132 76 223 2.0 3.0 0.00 0.18 0.18 81 1019.2
20260903144631 75 52 1.0 2.0 0.00 0.18 0.18 83 1019.1
20260903144128 74 275 0.0 0.0 0.00 0.18 0.18 85 1019.0
20260903143624 75 128 4.0 6.0 0.00 0.18 0.18 84 1019.3
20260903143119 75 239 2.0 3.0 0.00 0.18 0.18 84 1019.1
20260903142615 75 288 1.0 1.0 0.00 0.18 0.18 85 1019.1
20260903142111 75 246 2.0 2.0 0.00 0.18 0.18 84 1019.3
20260903141606 75 208 2.0 2.0 0.00 0.18 0.18 84 1019.1
20260903141101 75 194 0.0 1.0 0.00 0.18 0.18 85 1018.9
20260903140557 75 220 3.0 4.0 0.00 0.18 0.18 84 1019.1
20260903140052 75 255 2.0 3.0 0.00 0.18 0.18 84 1019.1
20260903135549 74 217 2.0 2.0 0.00 0.18 0.18 85 1019.1
20260903135049 74 201 1.0 1.0 0.00 0.18 0.18 87 1019.3
20260903134548 74 330 0.0 1.0 0.00 0.18 0.18 87 1019.4
20260903134044 73 226 2.0 2.0 0.00 0.18 0.18 87 1019.3
20260903133536 73 235 2.0 2.0 0.00 0.18 0.18 87 1019.1
20260903133031 74 238 2.0 3.0 0.00 0.18 0.18 86 1019.4
20260903132526 73 224 1.0 2.0 0.00 0.18 0.18 87 1019.3
20260903132021 73 226 2.0 2.0 0.00 0.18 0.18 88 1019.1
20260903131516 71 224 2.0 3.0 0.00 0.18 0.18 90 1019.0
20260903131015 72 229 1.0 2.0 0.00 0.18 0.18 92 1019.1
20260903130510 71 220 1.0 1.0 0.00 0.18 0.18 93 1019.5
20260903130009 71 251 1.0 1.0 0.00 0.18 0.18 94 1019.5
20260903125508 71 233 1.0 2.0 0.00 0.18 0.18 95 1019.6
20260903125003 71 192 0.0 0.0 0.00 0.18 0.18 95 1019.6
20260903124458 70 213 0.0 0.0 0.00 0.18 0.18 96 1019.7
20260903123956 70 192 0.0 1.0 0.00 0.18 0.18 96 1019.7
20260903123451 70 228 1.0 1.0 0.00 0.18 0.18 96 1019.9
20260903122950 70 218 0.0 0.0 0.00 0.18 0.18 96 1019.8
20260903122444 70 223 0.0 0.0 0.00 0.18 0.18 96 1019.9
20260903121943 70 207 0.0 0.0 0.00 0.18 0.18 96 1019.9
20260903121438 70 202 0.0 0.0 0.00 0.18 0.18 96 1019.8
20260903120934 70 186 0.0 1.0 0.00 0.18 0.18 96 1019.7
20260903120433 70 235 0.0 0.0 0.00 0.18 0.18 96 1020.2
20260903115932 70 222 0.0 0.0 0.00 0.18 0.18 96 1019.8
20260903115432 69 218 0.0 0.0 0.00 0.18 0.18 96 1019.7
20260903114927 70 221 0.0 0.0 0.00 0.18 0.18 96 1019.9
20260903114422 70 221 0.0 0.0 0.00 0.18 0.18 96 1019.8
20260903113918 69 222 0.0 0.0 0.00 0.18 0.18 96 1020.0
20260903113414 69 225 0.0 0.0 0.00 0.18 0.18 96 1020.0
20260903112909 69 225 0.0 0.0 0.00 0.18 0.18 96 1020.0
20260903112405 69 227 0.0 0.0 0.00 0.18 0.18 96 1019.9
20260903111904 69 191 1.0 1.0 0.00 0.18 0.18 96 1019.8
20260903111403 69 195 0.0 0.0 0.00 0.18 0.18 96 1019.7
20260903110900 69 222 0.0 0.0 0.00 0.18 0.18 96 1019.9
20260903110355 69 231 0.0 0.0 0.00 0.18 0.18 96 1019.9
20260903105849 69 232 0.0 0.0 0.00 0.18 0.18 96 1019.6
20260903105344 69 205 0.0 0.0 0.00 0.18 0.18 96 1019.4
20260903104838 69 210 0.0 0.0 0.00 0.18 0.18 96 1019.7
20260903104334 69 211 0.0 0.0 0.00 0.18 0.18 96 1019.8
20260903103831 69 247 0.0 1.0 0.00 0.18 0.18 96 1020.0
20260903103326 69 229 0.0 0.0 0.00 0.18 0.18 96 1019.8
20260903102821 69 219 0.0 0.0 0.00 0.18 0.18 96 1019.9
20260903102316 69 227 0.0 0.0 0.00 0.18 0.18 96 1019.7
20260903101815 69 205 0.0 0.0 0.00 0.18 0.18 96 1019.6
20260903101310 69 304 1.0 2.0 0.00 0.18 0.18 96 1019.7
20260903100806 69 237 0.0 1.0 0.00 0.18 0.18 96 1019.5
20260903100300 69 233 0.0 0.0 0.00 0.18 0.18 96 1019.3
20260903095757 69 235 0.0 0.0 0.00 0.18 0.18 96 1019.2
20260903095251 69 194 0.0 0.0 0.00 0.18 0.18 96 1019.3
20260903094747 69 229 0.0 0.0 0.00 0.18 0.18 96 1019.4
20260903094241 68 189 1.0 1.0 0.00 0.18 0.18 96 1019.2
20260903093737 68 233 0.0 0.0 0.00 0.18 0.18 96 1019.5
20260903093232 68 204 1.0 1.0 0.00 0.18 0.18 96 1019.2
20260903092731 68 268 2.0 2.0 0.00 0.18 0.18 96 1019.5
20260903092227 68 234 0.0 0.0 0.00 0.18 0.18 96 1019.3
20260903091725 68 218 0.0 0.0 0.00 0.18 0.18 96 1019.3
20260903091220 68 232 0.0 0.0 0.00 0.18 0.18 96 1019.5
20260903090716 68 237 0.0 0.0 0.00 0.18 0.18 96 1019.4
20260903090214 68 240 0.0 0.0 0.00 0.18 0.18 96 1019.5
20260903085713 68 252 0.0 0.0 0.00 0.18 0.18 96 1019.1
20260903085209 68 213 0.0 0.0 0.00 0.18 0.18 96 1019.1
20260903084706 68 216 0.0 0.0 0.00 0.18 0.18 96 1019.3
20260903084201 68 216 0.0 0.0 0.00 0.18 0.18 96 1019.4
20260903083657 68 216 0.0 0.0 0.00 0.18 0.18 95 1019.6
20260903083157 68 233 0.0 0.0 0.00 0.18 0.18 95 1019.7
20260903082651 68 237 0.0 0.0 0.00 0.18 0.18 95 1019.8
20260903082147 68 232 0.0 0.0 0.00 0.18 0.18 95 1020.1
20260903081641 68 232 0.0 0.0 0.00 0.18 0.18 95 1020.0
20260903081138 68 240 0.0 0.0 0.00 0.18 0.18 95 1020.1
20260903080634 68 229 1.0 2.0 0.07 0.18 0.18 95 1020.3
20260903080132 68 251 0.0 0.0 0.07 0.18 0.18 95 1020.0
20260903075630 68 200 0.0 0.0 0.00 0.17 0.17 95 1019.8
20260903075125 68 189 0.0 0.0 0.00 0.17 0.17 95 1019.7
20260903074620 68 191 0.0 0.0 0.00 0.17 0.17 95 1020.0
20260903074120 68 201 0.0 0.0 0.00 0.17 0.17 95 1020.2
20260903073615 68 207 0.0 0.0 0.00 0.17 0.17 95 1020.1
20260903073111 68 205 0.0 0.0 0.00 0.17 0.17 95 1020.4
20260903072606 68 205 0.0 0.0 0.05 0.17 0.17 95 1020.3
20260903072102 68 205 0.0 0.0 0.05 0.17 0.17 95 1020.5
20260903071559 68 204 0.0 0.0 0.05 0.17 0.17 95 1020.5
20260903071059 68 216 0.0 0.0 0.07 0.16 0.16 95 1020.4
20260903070554 68 227 0.0 0.0 0.07 0.16 0.16 95 1020.6
20260903070050 68 223 0.0 1.0 0.00 0.15 0.15 95 1020.6
20260903065549 68 234 0.0 0.0 0.00 0.15 0.15 95 1020.6
20260903065048 68 226 0.0 0.0 0.00 0.15 0.15 95 1020.8
20260903064543 68 227 0.0 0.0 0.00 0.15 0.15 95 1020.5
20260903064038 68 215 0.0 0.0 0.05 0.15 0.15 95 1020.4
20260903063533 68 215 0.0 0.0 0.05 0.15 0.15 95 1020.5
20260903063029 68 216 0.0 0.0 0.00 0.14 0.14 95 1020.5
20260903062524 68 216 0.0 0.0 0.00 0.14 0.14 95 1020.5
20260903062020 68 203 0.0 0.0 0.00 0.14 0.14 95 1020.7
20260903061514 68 194 0.0 0.0 0.07 0.14 0.14 95 1021.2
20260903061003 68 317 0.0 0.0 0.07 0.14 0.14 95 1021.0
20260903060457 68 313 1.0 1.0 0.07 0.14 0.14 95 1021.2
20260903055957 68 263 0.0 0.0 0.00 0.13 0.13 95 1021.3
20260903055455 68 224 0.0 0.0 0.05 0.13 0.13 95 1021.1
20260903054954 68 192 0.0 0.0 0.05 0.13 0.13 94 1021.0
20260903054449 68 169 1.0 1.0 0.07 0.12 0.12 94 1021.0
20260903053945 68 281 1.0 2.0 0.12 0.12 0.12 94 1021.2
20260903053444 68 175 0.0 1.0 0.05 0.11 0.11 94 1021.0
20260903052941 68 188 0.0 0.0 0.07 0.10 0.10 94 1021.5